Volver al catálogo

STARLINK-37530

ActivoComunicacionesSSO
NORAD 69131·PAYLOAD·🇺🇸 United States

Lanzado May 20, 2026 desde Vandenberg Space Force Base

Loading…

Próximos Pases (próximas 24 horas)

TLE

ActualizadoSource: CelesTrak SupGP

Época: Sep 14, 2026, 23:15 UTC

1 69131C 26110H   26257.96923611  .00077604  00000+0  24089-2 0  2574
2 69131  97.2853  93.0804 0001477  99.5075  14.5577 15.33400422    18

Sigue STARLINK-37530 en tiempo real con AllMySat

Download on the App Store